Wind_Speed
12 12 13 13 13 13 14 14 14 15 15 15 15 16 16 17 17 18 17 16 16 15 14 12 10 10 9 8 8 8 8 7 8 10 14 14 12 10 7 8 10 10 9 11 11 8 7 4 5 5 5 6 1 2 2 2 1 2 2 2 1 1 2 5 7 3 4 7 7 6 6 6 6 5 3 4 8 8 8 10 9 12 15 16 20 23 24 22
13 13 13 13 13 14 14 14 14 15 15 15 15 16 16 16 17 17 18 16 16 15 14 12 10 10 10 9 9 9 9 10 12 15 21 20 13 11 9 8 10 11 11 12 11 9 7 3 3 6 3 4 1 2 3 3 4 3 2 2 1 1 4 5 10 8 1 6 7 7 7 6 6 5 3 4 8 9 10 11 10 15 17 19 22 22 23 21
14 14 14 14 14 15 15 15 15 15 15 16 16 16 16 16 17 17 17 16 16 15 15 13 10 10 10 10 10 9 9 11 12 16 22 22 19 16 12 12 12 12 15 14 11 10 9 5 7 5 2 2 1 0 2 1 2 2 2 2 2 3 6 5 7 10 7 1 6 7 7 6 5 4 2 4 8 8 10 11 10 14 16 18 19 20 22 21
15 15 15 15 15 15 15 15 16 16 16 16 16 17 17 17 17 17 16 16 15 14 14 14 12 10 10 10 9 8 8 11 8 5 9 17 21 19 15 14 14 14 15 14 12 10 10 8 6 9 3 3 2 1 1 2 1 1 1 1 1 2 4 4 3 9 8 3 2 7 6 6 5 4 4 4 5 5 8 11 11 13 16 17 18 18 19 19
15 15 15 15 15 15 16 16 16 17 17 17 17 17 18 18 17 17 16 15 14 14 14 13 13 11 9 10 8 6 7 6 1 6 5 13 17 17 16 15 14 14 15 14 13 12 11 9 2 6 3 4 1 1 3 3 1 1 2 3 3 1 1 3 6 10 5 0 2 5 4 4 5 6 5 3 2 3 6 11 14 14 15 17 16 17 17 16
16 16 16 16 16 16 16 16 16 17 17 17 18 18 18 18 18 17 16 15 14 13 13 13 13 11 11 11 7 4 6 5 2 4 7 12 14 14 15 14 13 13 14 14 12 12 10 9 5 3 5 4 2 1 5 5 5 2 1 3 6 6 3 2 8 10 1 6 5 4 7 7 5 5 4 1 0 2 7 11 14 14 14 16 15 15 16 15
16 16 16 17 17 17 17 17 17 17 17 17 18 18 18 19 18 18 16 15 14 13 12 12 12 12 11 10 5 3 8 11 5 5 9 12 13 13 14 13 12 12 14 14 13 11 8 9 8 3 9 6 5 4 6 5 8 5 2 2 5 7 6 6 8 6 4 7 3 5 9 7 3 5 2 3 1 3 8 12 13 14 14 15 15 14 15 14
17 17 17 17 17 17 17 17 17 17 17 18 18 19 19 19 19 18 16 15 13 12 11 11 11 10 10 8 5 6 10 8 6 11 10 13 13 13 14 12 12 13 14 14 12 10 8 10 8 5 8 7 3 7 7 4 7 5 4 3 3 4 5 4 4 1 7 3 2 9 9 6 5 1 3 4 2 5 7 11 13 14 14 14 13 14 14 13
17 17 17 18 18 18 18 18 18 18 18 18 19 19 19 19 18 18 16 14 13 12 11 10 9 9 9 7 7 9 5 4 9 9 12 15 15 15 15 12 14 14 13 13 12 10 8 8 8 8 2 6 4 6 6 3 3 4 4 5 4 4 4 3 2 3 7 2 4 8 2 6 6 3 5 5 2 5 7 9 12 13 14 13 12 13 13 12
18 18 18 19 19 19 19 19 19 19 19 19 19 19 19 19 18 18 16 14 12 11 10 9 9 8 8 7 8 8 2 8 6 6 13 17 16 16 16 14 14 14 14 12 11 9 7 8 7 8 7 4 7 6 5 2 3 5 5 4 5 4 3 2 1 3 6 3 6 7 4 4 5 5 4 6 7 5 8 9 12 12 12 12 12 13 11 12
19 19 19 19 19 20 20 20 20 20 19 19 19 19 19 18 18 17 15 13 11 10 9 8 7 6 7 8 9 7 3 5 6 9 14 17 17 17 16 15 13 13 13 11 10 8 8 9 8 7 5 2 7 9 6 4 4 5 4 1 4 3 2 2 3 3 5 4 6 8 3 2 5 4 3 6 7 5 8 9 12 11 11 12 12 12 10 10
19 19 20 20 20 20 20 20 21 20 20 20 20 19 19 18 17 17 14 12 10 9 7 7 5 4 7 9 12 10 2 1 6 11 14 16 16 16 15 15 13 13 12 11 10 8 7 6 8 8 7 6 2 8 6 6 4 3 3 2 3 3 4 4 3 4 4 3 7 7 3 1 3 4 3 4 6 3 5 8 11 11 10 10 11 11 9 10
20 20 20 20 21 21 21 21 21 21 21 20 20 20 19 18 16 15 13 10 7 7 6 6 5 4 7 8 14 19 11 5 6 9 12 13 13 13 13 15 13 12 12 13 12 11 9 6 8 10 9 10 3 7 8 7 5 1 1 4 2 1 3 6 5 5 6 4 7 6 1 2 6 7 3 3 6 3 2 5 9 10 10 9 10 10 9 10
20 20 20 21 21 22 22 22 22 22 22 21 20 20 18 16 15 13 11 7 4 4 5 5 4 4 7 9 15 19 13 8 7 9 12 13 12 13 14 14 13 12 13 12 12 11 9 9 10 10 8 9 5 4 8 7 5 3 4 5 2 1 3 8 7 7 6 4 7 7 1 2 6 6 4 4 3 2 4 3 5 8 10 9 9 10 9 10
21 21 21 21 22 22 23 23 23 23 23 22 22 20 16 13 12 10 7 4 4 5 5 4 6 5 7 11 15 13 10 9 10 11 13 14 13 13 14 13 13 12 12 11 11 10 9 11 10 8 9 10 8 3 5 4 2 2 3 5 3 1 5 9 8 8 6 4 8 7 1 2 4 4 6 5 1 1 5 6 7 9 10 10 10 9 9 9
22 22 22 22 23 22 23 23 24 24 23 23 22 19 13 11 10 7 4 2 4 6 6 4 9 11 7 7 5 8 13 14 15 15 14 15 15 13 12 11 11 11 12 10 10 10 9 10 9 8 10 9 7 5 5 4 1 1 3 5 4 3 4 8 8 8 8 6 7 6 2 1 3 5 7 7 3 6 8 10 11 9 8 10 10 9 8 9
23 23 23 23 23 23 23 23 24 25 24 23 22 16 10 8 6 4 1 3 4 6 8 8 8 10 9 7 3 7 14 16 17 18 17 16 16 14 12 10 9 11 11 11 11 10 9 9 7 7 8 7 7 5 3 3 0 2 5 6 6 7 4 5 9 8 9 8 6 6 4 2 4 6 7 9 9 13 13 11 10 6 6 8 9 8 9 9
25 25 24 24 24 23 24 24 24 24 24 23 19 12 9 8 5 3 1 4 4 4 9 12 10 7 7 11 12 11 13 15 16 19 18 16 16 17 13 9 9 10 9 10 10 10 8 7 7 7 7 7 7 7 4 4 5 8 8 6 6 8 3 4 8 9 10 9 5 5 5 5 5 5 6 9 12 15 13 11 10 7 7 9 10 9 9 10
26 26 25 25 24 24 24 23 24 24 25 23 17 12 10 7 5 5 6 6 6 5 6 7 10 7 5 8 14 13 11 13 14 17 19 17 16 17 13 9 10 11 9 8 8 9 8 6 7 7 7 8 8 8 6 4 8 10 8 5 3 3 3 4 9 10 11 8 5 5 5 7 7 7 7 9 11 12 11 11 10 6 7 9 10 9 9 10
26 26 27 26 25 25 24 23 24 23 25 24 16 10 8 5 3 4 7 10 10 10 11 7 14 13 12 8 10 9 8 12 13 15 19 17 16 15 11 9 11 10 9 9 8 9 8 7 7 7 9 10 8 8 8 6 9 9 6 4 3 3 3 3 9 11 9 5 4 8 6 8 9 10 10 11 14 13 11 12 10 8 9 9 10 12 11 10
27 27 27 26 26 25 24 24 23 23 24 21 12 6 6 5 5 2 2 9 15 18 19 15 14 15 15 12 4 7 6 10 12 13 16 17 16 13 9 11 12 9 9 12 10 8 8 8 8 10 12 11 11 12 10 8 8 8 6 4 4 6 3 4 5 7 5 2 5 10 8 8 10 10 10 11 13 13 11 12 12 12 11 9 10 14 13 10
27 27 28 27 26 25 24 24 23 24 23 13 6 8 9 8 7 7 6 8 13 18 21 18 17 16 15 14 5 8 7 8 11 13 15 16 15 12 10 11 11 9 10 11 9 8 9 8 9 12 13 13 15 12 5 2 3 4 5 4 5 5 2 6 6 6 5 1 3 7 7 9 11 10 11 11 10 12 13 13 12 12 12 10 9 11 14 12
27 27 29 27 26 26 24 23 23 24 18 8 9 11 13 10 9 9 7 8 11 14 17 17 18 16 15 15 8 8 10 10 11 13 16 16 14 13 12 11 12 11 11 11 9 8 7 9 11 11 11 14 16 9 3 1 4 6 6 5 4 5 6 5 8 7 6 4 2 3 4 7 12 11 11 11 9 9 14 16 14 12 11 10 10 11 14 13
27 28 28 27 27 25 23 25 22 17 11 10 13 14 14 12 10 10 8 7 10 12 16 17 17 15 16 16 12 11 11 10 10 13 18 17 13 13 13 12 12 11 11 13 13 11 10 12 12 9 10 14 13 8 5 4 6 9 9 7 5 7 10 4 9 8 8 8 5 4 6 4 12 12 10 10 9 7 9 13 14 13 12 11 12 14 15 14
28 27 27 27 26 24 24 23 14 8 7 10 15 15 10 9 7 8 8 6 8 11 16 17 14 14 17 17 14 13 11 10 11 12 17 18 14 12 11 10 9 10 12 14 14 12 12 16 13 8 8 10 6 5 8 7 6 10 11 9 6 11 12 9 14 9 6 5 6 4 5 2 11 14 11 9 10 10 9 9 11 11 13 14 13 12 14 13
29 28 27 25 23 25 21 11 6 10 12 10 9 6 5 5 5 7 6 4 8 7 11 12 10 12 16 16 13 11 10 11 12 13 17 20 16 12 10 8 7 10 12 12 11 8 9 13 12 10 10 8 6 6 8 8 7 7 5 6 11 14 12 7 9 7 3 2 7 6 5 2 5 11 14 12 12 12 10 11 12 10 11 13 10 10 13 13
29 28 27 23 21 22 14 7 11 14 11 5 4 5 5 4 5 6 5 5 7 6 10 8 7 9 11 13 14 11 8 7 11 15 16 20 17 13 11 10 8 9 9 7 7 6 9 13 12 12 12 9 8 8 8 10 9 5 3 8 13 13 7 8 10 8 3 1 5 9 6 4 2 7 14 14 13 13 12 13 13 12 13 12 10 11 13 12
30 28 27 22 18 17 12 12 15 12 8 8 8 8 6 5 6 5 5 5 3 6 8 5 4 5 6 11 17 14 10 6 10 14 16 21 17 12 12 13 11 11 11 8 8 7 9 12 12 14 12 9 9 9 9 11 9 8 7 8 10 4 2 8 10 5 4 4 5 5 5 4 3 5 13 15 13 13 14 14 13 12 13 13 13 13 13 13
31 29 26 23 18 13 12 12 10 11 12 11 9 9 7 7 6 4 5 5 2 5 5 5 4 5 8 10 16 15 13 8 7 11 17 19 17 12 10 13 14 13 12 11 10 9 9 9 11 14 11 7 9 10 12 12 9 13 10 2 7 8 5 7 7 5 6 6 4 3 1 3 4 3 9 12 9 7 9 12 11 11 11 11 13 13 14 14
31 28 24 22 16 7 6 11 13 11 11 10 10 9 9 7 5 5 5 4 3 5 5 5 6 10 12 12 14 15 15 12 7 10 15 15 16 14 10 11 13 12 11 12 12 13 13 7 5 10 9 6 9 11 13 13 10 12 9 3 5 9 6 7 5 4 6 5 5 5 5 5 4 4 5 5 7 8 9 10 10 10 11 10 11 11 15 15
30 26 22 20 14 7 5 8 6 7 6 8 9 7 7 5 4 7 5 2 2 5 7 6 9 11 14 14 12 14 16 14 10 11 13 11 13 13 10 10 9 8 10 10 10 14 15 9 4 7 9 8 9 11 12 13 9 7 6 4 7 6 5 6 3 3 6 4 5 8 7 6 3 4 3 3 9 11 8 9 10 9 10 10 10 10 11 13
29 24 20 18 16 13 13 8 4 7 6 6 7 6 5 5 6 8 5 2 2 5 6 8 11 11 14 16 12 13 15 13 12 12 12 11 10 11 12 10 7 7 9 8 9 11 12 11 9 8 9 10 10 9 10 11 8 6 5 5 7 4 3 4 3 4 6 5 7 8 6 3 3 5 3 4 10 12 7 6 12 11 9 9 11 10 9 9
26 21 17 15 15 17 16 10 7 8 6 5 6 5 5 6 7 8 8 6 3 5 1 5 11 11 12 13 12 13 14 13 13 13 12 13 11 12 15 14 12 9 7 8 9 9 9 11 13 12 9 11 12 9 7 9 9 8 6 6 7 4 3 4 4 4 5 6 8 5 1 3 5 3 3 8 9 8 9 8 10 9 5 5 7 9 11 8
22 16 13 10 12 13 10 7 7 7 6 6 6 5 7 8 7 9 10 8 6 5 3 5 8 11 11 11 11 12 12 13 14 14 12 13 11 10 13 16 17 13 8 8 7 7 9 9 12 14 9 11 14 13 10 10 9 9 8 8 8 5 4 4 4 4 5 3 2 0 3 3 4 1 6 11 8 6 9 11 11 7 4 3 5 7 11 10
17 10 8 7 10 10 8 8 7 6 6 6 5 6 9 7 7 10 6 5 7 4 5 6 6 7 10 10 11 13 12 11 14 14 11 12 11 10 11 13 17 15 10 8 6 8 11 9 12 18 13 13 15 14 14 12 8 8 8 8 9 6 4 5 7 7 6 3 2 3 5 3 3 6 7 7 7 7 8 8 12 11 8 7 7 6 6 10
15 6 4 7 10 9 10 10 7 7 7 6 6 7 8 7 8 8 5 4 8 9 4 4 6 8 9 8 10 14 14 11 14 13 10 12 13 13 13 11 15 17 13 9 6 6 9 9 8 18 16 14 14 13 14 14 7 5 7 9 9 8 6 7 8 7 7 6 3 3 5 4 5 7 7 5 5 7 6 6 8 10 7 6 6 5 4 6
15 7 6 8 8 7 9 9 7 8 7 6 7 8 7 9 11 11 7 6 7 9 8 4 4 6 8 8 8 12 14 12 12 11 9 11 12 13 15 12 14 18 16 13 9 5 6 8 4 16 13 13 13 12 15 15 11 5 6 8 8 8 8 7 5 3 4 5 2 2 3 4 3 4 6 5 5 6 6 6 6 6 6 5 5 3 2 3
13 10 9 6 8 7 8 8 8 8 6 6 9 10 10 11 13 13 9 8 7 9 8 7 4 4 8 8 7 10 12 10 10 10 9 9 9 13 16 13 13 18 18 16 10 5 6 7 6 13 10 11 13 10 12 13 15 13 7 6 8 7 6 5 4 3 4 5 3 5 6 4 2 1 5 6 6 7 7 5 4 4 3 2 1 3 3 3
9 8 5 7 10 7 9 9 8 7 5 7 8 7 9 11 14 16 12 6 7 8 7 8 7 7 10 9 6 8 12 11 10 10 9 8 7 12 15 12 12 15 17 15 11 6 6 7 4 9 9 10 11 8 9 9 13 15 11 7 6 5 4 4 4 4 6 5 4 5 5 1 5 3 2 4 6 7 7 4 3 5 5 5 2 3 3 2
8 6 2 10 10 8 10 9 7 6 6 8 8 7 10 11 12 15 8 2 4 7 7 10 10 9 10 10 9 8 8 10 11 9 8 8 7 10 12 12 11 13 15 15 12 8 6 6 4 6 8 8 7 8 9 10 10 11 9 7 6 4 5 5 4 5 6 5 4 3 1 2 3 1 1 6 8 7 6 4 3 8 8 2 4 3 4 1
7 5 3 10 10 10 9 6 6 6 7 8 9 11 11 7 10 13 6 5 3 8 8 11 12 10 10 10 9 7 6 8 10 9 8 9 9 6 7 11 11 11 13 13 11 8 6 6 6 6 7 7 8 10 12 13 12 10 9 7 7 6 5 5 4 5 5 5 4 2 1 1 4 4 4 7 6 5 4 3 4 8 7 4 1 4 4 1
7 4 5 10 9 9 8 6 6 6 7 7 9 12 9 3 8 13 8 5 8 8 8 11 12 11 10 9 10 8 7 7 8 10 9 9 10 8 8 11 13 12 11 10 10 9 7 6 7 7 6 7 10 13 13 14 13 12 11 9 8 7 6 6 5 4 3 3 2 2 1 2 4 5 7 9 5 4 5 4 6 8 5 5 5 4 4 3
5 4 6 11 9 9 7 6 6 7 8 9 11 14 12 7 8 10 8 9 9 7 8 8 9 11 10 9 11 10 8 8 8 10 9 8 11 11 10 11 12 12 9 8 9 10 7 6 8 8 6 6 10 13 14 12 12 11 10 10 10 9 8 8 8 5 3 1 3 4 1 2 6 6 7 10 8 6 4 2 6 8 5 5 6 5 4 4
7 7 2 9 9 9 7 6 7 7 6 9 11 12 12 10 9 10 9 9 8 7 8 8 8 9 9 9 11 12 10 7 7 9 9 7 7 9 12 13 11 10 9 7 6 7 7 6 6 6 6 7 9 10 12 12 10 9 9 11 12 12 12 10 8 7 3 0 4 6 0 3 4 8 7 7 9 7 3 3 6 6 6 6 7 5 3 2
7 7 4 7 10 8 6 6 8 8 8 11 12 11 11 10 8 10 11 11 10 9 8 8 7 7 8 10 10 11 13 10 7 8 9 9 8 7 10 11 12 11 10 6 6 5 5 6 6 6 7 7 6 6 7 8 8 7 10 12 11 12 13 11 7 5 3 2 4 6 4 6 4 8 7 6 9 7 2 3 7 7 8 8 6 5 2 2
6 5 4 1 5 4 6 7 8 9 8 9 9 9 10 10 8 8 9 8 9 10 9 8 9 9 9 10 10 11 12 12 10 9 9 9 8 7 9 9 12 11 2 5 2 6 5 7 8 7 9 8 4 0 3 6 8 9 12 13 11 12 13 11 8 4 2 1 2 5 7 7 7 10 9 8 9 7 5 6 6 8 10 9 6 5 3 2
5 4 6 6 4 4 5 5 5 6 8 8 6 8 10 10 9 7 4 3 5 8 10 9 9 10 9 9 10 10 11 12 12 12 12 11 9 7 10 15 11 10 7 4 6 6 6 8 11 12 13 14 10 6 7 10 9 10 13 14 13 12 11 11 9 2 6 2 2 6 8 5 6 10 10 10 10 9 8 8 6 8 10 9 7 6 5 5
6 5 7 8 6 6 6 7 8 9 12 11 7 8 11 11 10 7 3 4 6 7 8 7 8 11 13 12 9 7 9 11 11 12 13 11 11 9 10 15 9 10 7 8 10 5 6 8 10 12 14 15 15 14 12 12 12 12 13 14 14 14 13 12 11 8 8 4 2 6 7 6 8 12 13 12 11 10 9 8 7 8 10 10 8 6 5 5
7 5 7 10 8 9 10 12 11 11 11 10 8 9 11 11 12 10 6 5 6 7 8 7 7 8 9 10 8 6 7 8 7 9 8 7 10 10 8 12 11 6 6 11 9 7 7 6 9 13 12 14 16 16 15 13 13 13 13 14 15 16 17 17 16 13 10 8 7 7 6 8 9 9 10 11 10 10 10 9 8 10 12 11 8 6 5 2
8 5 7 9 9 9 10 10 9 8 8 7 7 7 8 9 9 8 8 7 6 7 8 9 11 10 9 8 8 6 7 9 7 8 9 10 9 8 7 8 6 4 9 11 9 10 8 6 10 11 10 11 14 16 16 15 14 12 12 15 15 15 15 15 14 9 6 7 8 8 6 6 5 4 5 8 7 7 11 12 9 10 13 11 9 9 6 1
11 10 9 8 7 9 9 8 8 6 5 5 5 5 6 8 8 9 8 7 7 8 9 10 12 11 9 9 8 7 11 13 11 12 12 11 9 8 8 8 8 8 8 8 8 10 9 8 10 9 9 10 11 15 17 17 16 14 13 14 15 12 10 9 8 6 7 7 7 9 7 6 7 9 7 7 7 7 12 14 11 10 10 9 10 12 12 8
14 12 10 8 8 8 9 9 9 6 4 5 7 7 8 8 9 10 9 6 6 8 9 11 12 9 8 9 8 12 14 15 15 15 13 12 12 12 10 11 11 10 9 8 7 9 9 7 8 9 8 8 11 15 15 16 15 13 11 12 14 11 9 9 9 8 9 8 8 7 7 6 8 9 8 8 10 12 11 12 12 11 9 7 7 10 14 13
Wind_Direction
17 16 13 10 8 7 4 1 358 357 356 354 353 350 348 347 345 343 342 343 343 342 346 350 347 342 339 335 331 320 312 299 282 250 235 243 239 238 234 214 220 216 195 189 211 228 209 231 297 255 143 95 89 154 121 122 207 254 247 255 209 319 322 329 344 13 136 134 135 137 130 123 123 130 181 178 115 114 107 86 88 103 111 123 129 136 140 144
12 12 9 6 5 2 360 357 355 354 352 350 349 347 345 343 341 340 337 338 337 337 339 342 343 343 339 337 334 326 322 295 270 256 244 240 239 238 228 225 225 205 197 201 209 225 235 197 244 282 78 106 241 154 160 173 206 231 235 222 138 344 297 334 350 333 266 131 134 138 137 130 136 143 173 163 125 119 108 101 105 105 111 123 131 139 141 147
10 9 6 4 3 359 356 353 351 350 348 347 345 343 342 339 339 336 334 333 332 332 333 335 336 336 336 337 335 330 325 298 267 256 248 232 225 229 224 226 220 205 204 206 214 224 254 251 168 165 81 88 354 70 192 200 227 256 268 208 81 332 298 357 2 300 291 118 138 136 130 123 130 138 136 137 122 117 116 120 123 118 125 130 135 143 146 150
10 7 5 3 0 357 354 350 348 347 345 343 341 340 339 337 335 332 331 328 327 326 327 331 329 326 332 334 336 337 312 287 274 267 237 213 214 219 216 220 214 207 213 218 238 250 265 272 145 132 117 86 57 301 106 62 232 271 8 173 45 341 304 2 347 267 274 292 152 123 125 125 107 94 109 120 109 116 127 132 132 129 134 137 141 146 151 153
10 7 5 2 359 356 352 349 346 344 342 340 338 337 336 334 332 330 327 324 323 321 321 325 324 321 324 329 334 326 299 278 24 73 140 188 203 209 205 209 207 206 217 228 251 273 277 273 178 134 126 100 136 260 99 98 124 66 92 150 174 160 293 309 275 252 230 355 58 90 70 61 73 73 79 88 96 127 128 128 132 136 139 141 147 148 152 153
10 7 5 2 359 356 352 348 345 343 340 337 335 334 333 332 330 328 323 320 319 315 316 319 323 320 319 330 334 295 270 288 350 108 148 178 194 199 195 197 202 204 218 236 252 265 277 279 262 156 104 100 219 210 101 109 100 91 161 177 192 185 190 232 256 261 182 68 38 41 34 35 64 66 41 58 184 108 118 126 133 141 144 144 149 151 153 154
7 6 4 2 359 356 353 349 345 342 340 337 334 332 331 329 328 327 321 317 315 313 311 312 318 315 317 329 323 239 244 273 277 155 154 174 186 190 187 188 199 205 223 243 252 260 279 285 285 87 109 142 204 146 108 113 118 136 176 198 198 193 208 198 220 262 57 69 26 29 38 22 45 76 345 264 173 98 118 129 136 142 146 147 152 154 153 156
4 4 2 360 358 355 352 348 345 342 339 337 333 331 329 327 326 324 320 314 311 309 304 305 311 309 317 324 291 250 252 257 153 141 154 168 174 179 180 185 198 208 227 241 255 274 290 290 312 41 114 146 153 119 129 146 138 148 150 167 205 204 235 234 224 80 73 73 41 49 37 329 307 92 236 247 135 113 122 133 139 146 149 151 156 156 154 160
2 1 0 358 356 353 350 346 344 341 339 336 332 330 327 324 324 323 319 312 307 304 298 297 302 303 308 307 278 270 265 114 120 142 156 162 169 174 178 188 196 209 228 239 252 264 280 305 341 354 27 129 109 105 150 193 118 120 122 156 205 212 229 248 254 97 95 97 85 75 54 258 288 285 220 242 229 136 142 149 144 151 154 155 159 156 156 162
360 359 359 357 354 351 348 344 342 339 338 335 331 328 325 323 322 321 317 309 304 297 291 288 292 299 293 280 266 263 159 113 123 158 162 163 166 172 186 198 196 210 231 240 249 261 285 318 340 321 324 114 125 109 144 188 106 119 112 154 198 212 227 196 182 116 117 123 120 129 191 245 318 312 220 240 255 157 153 163 151 159 158 158 161 154 163 165
359 359 357 356 353 350 347 344 341 338 336 335 330 326 323 321 319 320 316 308 301 289 283 279 281 288 279 274 262 248 134 134 159 161 170 168 166 177 196 204 199 215 237 246 247 263 282 305 322 305 320 66 130 121 129 120 109 107 86 182 193 191 244 189 174 152 138 131 133 134 138 310 331 306 230 235 246 176 168 172 158 166 161 162 163 155 166 165
357 357 355 355 352 349 347 344 341 338 336 334 329 325 322 320 318 319 315 307 295 279 268 265 270 283 281 273 251 242 271 211 167 162 178 174 176 188 199 206 207 220 243 259 257 273 284 301 311 297 313 319 154 136 128 94 96 108 90 254 197 184 240 202 185 178 161 147 154 142 83 328 275 253 240 238 240 206 186 182 166 168 164 167 161 156 169 163
356 355 353 353 351 349 346 343 341 338 336 334 329 325 321 317 317 317 315 307 288 266 250 251 251 257 275 271 248 245 252 249 182 168 183 183 189 196 206 218 218 228 248 268 281 306 328 334 304 292 305 306 294 135 129 82 48 63 238 265 210 203 227 179 180 190 173 147 166 173 2 270 233 232 230 217 222 248 263 201 181 173 166 173 164 161 173 164
354 352 350 350 349 348 345 342 340 337 336 335 330 324 318 315 315 316 314 300 261 239 225 231 234 237 256 261 261 251 234 225 205 191 197 193 199 204 211 225 228 238 249 263 281 297 305 301 291 287 278 270 278 139 128 85 24 341 315 285 216 183 178 163 173 188 172 152 181 191 231 243 224 211 192 198 213 261 260 228 207 192 170 171 169 166 173 168
351 350 348 347 346 345 343 341 338 336 336 335 330 324 316 311 311 311 311 282 212 200 204 219 219 227 260 259 262 249 210 221 229 216 210 202 208 213 210 221 232 242 249 258 272 275 277 281 279 277 269 258 256 223 118 82 9 355 328 294 284 240 162 157 169 184 174 169 190 201 209 184 206 189 165 168 172 228 248 278 255 210 178 170 174 172 171 168
349 348 346 345 344 343 341 339 337 335 333 333 331 323 311 308 310 305 303 238 188 177 183 217 208 211 265 277 237 206 207 227 233 223 218 211 216 220 208 216 233 240 247 253 263 269 270 272 268 270 282 282 260 220 122 90 331 280 247 272 297 273 179 152 168 180 167 161 181 210 247 117 209 205 155 144 180 191 201 245 240 210 189 176 172 168 166 173
345 345 344 343 342 340 339 336 335 333 331 333 331 321 306 306 306 306 311 169 167 177 206 255 241 214 251 274 219 203 218 224 224 218 217 213 218 225 211 206 228 234 238 244 250 258 259 258 262 258 252 253 258 242 158 117 290 235 238 254 235 242 262 140 167 181 170 166 176 202 211 188 191 196 169 152 193 201 191 219 228 217 220 188 169 164 169 177
342 342 341 340 340 338 337 334 334 333 329 332 331 320 311 302 275 272 271 166 168 212 237 261 266 241 244 246 236 236 226 214 212 213 211 208 214 226 218 203 226 229 229 239 238 240 245 243 249 259 248 232 235 242 230 163 184 214 225 244 227 224 249 122 156 177 179 177 183 201 191 188 176 180 195 165 185 205 191 204 217 212 219 194 170 164 177 179
339 338 338 338 338 336 335 333 332 331 328 329 329 317 311 295 249 237 232 210 189 209 236 213 206 231 291 239 220 237 235 200 200 208 205 202 208 224 223 209 226 229 230 235 219 218 231 235 234 248 256 241 230 232 247 190 191 220 229 249 281 222 212 137 141 163 184 177 180 225 186 175 180 184 204 167 173 209 195 192 207 209 219 204 176 158 181 182
337 336 334 334 335 333 332 330 329 329 327 327 327 311 291 266 239 213 206 217 217 235 263 219 190 223 280 272 202 216 224 182 192 206 200 197 204 220 220 213 227 225 233 243 223 206 211 235 237 236 244 246 247 236 230 211 205 232 261 270 290 260 236 142 127 148 184 184 203 239 202 167 178 186 194 168 170 197 194 187 196 208 214 210 189 164 177 184
336 334 333 332 332 330 328 328 325 324 324 322 317 283 275 310 326 337 208 228 223 230 254 252 224 229 263 284 197 170 193 173 192 206 195 196 204 215 205 207 228 221 222 243 248 223 205 235 243 240 250 251 252 240 219 213 212 227 256 253 250 247 204 128 114 130 166 227 220 223 212 185 184 181 179 171 173 181 189 193 193 206 210 214 203 166 166 182
335 333 331 330 330 327 326 324 319 318 319 309 268 246 269 320 344 329 310 270 242 231 239 247 247 244 249 265 223 167 203 191 199 206 193 192 200 210 199 197 224 228 218 229 248 242 216 231 245 245 259 257 251 252 240 236 263 277 273 248 258 269 184 148 162 155 152 249 217 204 209 191 183 179 172 179 187 176 183 195 193 205 204 208 215 172 169 179
336 333 330 331 329 325 323 319 315 314 307 261 226 245 265 301 332 315 293 280 275 252 237 232 237 241 236 241 210 178 221 210 204 205 189 191 200 209 211 201 217 232 227 220 228 246 234 222 224 225 244 259 263 279 337 310 267 278 266 254 254 252 250 200 166 158 165 199 246 272 259 182 173 178 171 180 192 174 180 190 192 201 198 206 218 190 181 175
336 333 331 332 327 323 322 317 311 301 276 228 237 253 266 295 315 309 293 274 275 263 245 231 225 230 229 228 204 190 227 224 214 205 185 192 203 205 219 217 216 228 233 232 229 238 258 252 237 214 216 245 258 271 276 243 248 254 237 246 271 255 259 225 146 159 186 195 193 247 268 181 165 174 168 173 186 182 187 192 194 195 186 203 212 189 184 177
337 334 331 333 328 322 321 314 309 300 270 238 248 256 267 293 307 303 299 274 265 255 238 228 220 220 217 218 208 196 220 231 227 209 181 192 208 200 215 224 220 227 227 236 241 236 249 262 270 272 248 249 253 253 253 235 244 254 225 206 228 258 252 163 146 172 209 202 172 209 280 181 161 172 170 167 178 184 189 198 206 201 188 197 202 183 183 184
337 334 332 334 329 323 321 313 331 331 302 269 260 283 295 300 315 299 284 265 268 242 200 197 195 197 199 204 203 196 218 230 230 217 180 186 211 212 213 219 221 237 232 231 244 248 248 252 261 266 263 266 261 252 252 238 241 263 256 207 203 235 249 183 180 225 252 165 159 187 271 270 166 167 168 169 180 185 185 199 204 204 204 198 186 173 183 191
336 333 332 333 329 330 327 307 326 318 297 313 349 340 330 317 314 292 268 263 258 195 154 161 169 170 184 192 183 186 221 206 205 220 188 177 204 222 223 222 213 230 249 250 239 237 245 247 248 246 246 248 248 249 242 240 250 245 270 271 230 214 238 253 257 275 319 24 172 193 223 273 297 154 162 170 182 186 188 202 201 198 207 199 187 184 183 191
334 331 331 328 324 324 301 288 309 292 279 350 348 314 325 319 293 274 263 272 242 144 144 140 121 149 195 192 179 193 230 190 181 211 189 174 193 214 223 232 233 223 223 240 251 239 229 233 242 245 240 234 238 247 232 228 258 257 234 272 275 251 248 263 269 287 283 266 233 209 195 243 283 162 167 174 183 192 192 196 197 200 203 191 193 194 179 189
332 330 329 323 319 311 283 271 277 272 285 321 323 306 309 293 274 252 256 267 183 136 154 146 133 178 204 192 182 202 229 216 193 192 175 173 194 216 227 232 247 251 228 221 243 255 242 225 231 241 240 231 236 248 239 215 223 253 252 315 321 309 310 274 272 284 270 258 268 291 197 249 275 206 190 186 180 179 181 188 191 198 204 199 200 187 172 193
331 328 326 322 316 313 283 257 259 284 296 293 298 301 289 272 256 236 232 243 206 152 128 144 172 184 192 190 188 203 221 228 218 182 169 172 193 216 236 229 237 259 250 228 232 251 262 256 232 247 249 235 235 246 253 241 225 249 273 343 281 264 261 256 262 305 299 281 271 259 223 228 257 248 232 195 154 138 154 177 181 192 201 207 218 196 176 190
328 326 324 314 300 293 280 253 271 320 301 276 285 278 260 242 236 243 223 243 259 149 135 169 177 175 189 197 197 198 212 230 221 178 171 179 190 203 224 228 224 243 251 241 230 236 251 255 224 248 257 247 239 235 243 253 251 253 272 279 252 237 228 246 246 272 269 262 284 279 244 225 246 268 262 145 130 129 144 166 165 194 214 204 220 223 200 191
326 324 315 296 280 262 250 250 337 338 304 283 270 246 241 222 223 241 235 270 252 170 192 200 172 174 195 201 208 199 200 224 217 183 180 192 193 198 212 217 207 215 234 237 227 223 232 237 220 220 237 240 243 233 226 239 239 236 246 255 255 223 198 254 251 249 263 259 273 286 288 280 275 265 247 112 108 119 140 161 158 184 218 206 206 213 220 223
327 321 303 279 265 252 246 261 300 299 291 278 250 229 233 234 228 232 239 255 198 137 210 212 170 181 200 202 214 202 194 214 207 187 193 199 198 202 209 218 220 218 228 232 230 220 213 222 220 216 211 215 232 238 221 218 212 213 225 236 252 233 200 243 244 243 258 257 255 245 195 256 256 256 85 82 83 117 146 146 149 172 206 200 208 209 204 227
328 313 289 264 254 250 241 254 273 271 266 249 234 222 227 238 251 245 241 254 242 172 182 224 190 186 197 208 218 200 194 217 210 191 194 200 208 211 205 216 224 228 241 241 243 238 227 221 208 209 202 189 212 234 237 227 204 200 220 230 243 247 226 234 235 238 236 234 290 166 169 243 259 219 109 111 107 105 122 132 145 171 200 186 217 228 193 184
330 299 274 248 241 240 221 226 245 248 242 232 224 227 226 229 246 249 253 293 295 271 192 206 212 210 208 209 219 209 199 216 214 202 202 205 213 219 210 211 215 224 243 237 235 240 243 246 199 194 198 186 197 222 238 244 220 185 204 226 235 233 213 233 249 263 269 235 170 196 216 233 204 177 151 134 131 114 117 140 151 163 184 194 201 226 204 176
332 295 236 219 226 223 209 215 224 219 225 234 229 228 232 241 250 261 292 326 325 331 320 201 199 231 231 205 214 215 203 206 211 205 207 211 218 224 221 215 205 211 228 235 243 234 241 271 197 177 190 193 192 209 224 239 242 179 190 216 235 237 218 232 245 248 271 266 207 198 218 201 184 168 134 108 126 130 142 164 154 154 171 200 200 199 237 213
332 299 250 216 202 186 188 198 201 205 220 235 237 240 244 252 259 270 303 339 333 318 304 269 205 232 241 220 215 208 196 198 206 206 207 208 218 223 222 225 210 206 216 232 254 255 260 297 141 156 188 193 184 204 217 230 244 228 204 201 216 244 241 247 264 249 260 269 271 302 261 220 203 165 135 134 144 139 149 159 151 164 184 207 207 161 216 280
320 294 279 211 163 161 182 189 194 203 216 233 243 258 265 268 272 282 317 353 329 301 291 280 256 250 255 243 222 201 195 197 203 209 216 212 213 212 216 227 216 205 209 221 241 258 269 283 149 158 201 187 170 201 217 220 232 240 249 210 197 223 238 247 284 289 252 244 242 255 255 262 321 156 169 171 160 146 143 146 152 181 210 247 171 89 51 355
289 273 272 163 153 164 172 178 198 206 215 233 236 246 257 264 270 276 288 302 290 291 289 279 274 270 270 271 261 219 204 208 214 208 207 214 207 196 205 221 214 203 204 212 230 246 254 266 195 174 203 180 164 199 214 203 219 238 255 250 225 228 234 222 213 241 256 250 233 223 211 238 14 357 229 157 138 137 131 150 177 122 68 2 340 92 72 339
273 264 167 142 151 160 161 176 209 215 219 236 246 253 258 265 267 268 278 343 297 285 275 274 276 278 281 281 279 262 224 218 226 217 200 204 204 191 198 215 216 206 200 203 222 236 233 255 241 187 195 191 176 198 214 200 199 220 238 246 248 249 256 249 198 207 254 269 259 254 217 112 75 20 308 81 107 140 144 177 182 102 104 228 264 98 95 334
277 289 144 146 155 160 168 195 216 224 233 237 249 256 260 285 293 289 326 43 307 278 279 282 280 283 295 292 283 279 260 236 228 227 219 205 205 205 205 217 223 212 198 197 213 229 230 243 248 214 196 205 199 198 215 219 206 201 210 223 233 232 239 246 211 201 233 257 240 207 203 144 133 165 149 96 112 148 129 122 104 93 112 164 148 90 106 176
269 303 139 153 165 172 195 232 225 230 243 243 253 258 256 290 292 286 302 304 274 266 266 274 276 278 287 292 295 301 293 271 238 226 225 210 207 205 191 206 223 218 200 197 207 216 227 244 252 245 223 214 204 193 205 230 234 220 209 208 219 234 239 237 235 211 213 288 326 110 150 160 146 155 140 122 109 88 73 69 89 91 83 75 81 98 120 134
288 327 134 155 178 197 222 252 242 234 240 243 251 258 259 268 276 274 276 273 271 268 259 260 267 267 268 276 284 292 296 287 263 243 233 218 213 205 183 192 220 225 211 203 204 201 206 236 256 256 244 230 217 197 190 213 240 240 222 210 212 220 223 238 264 256 203 323 38 71 334 166 118 87 95 111 106 93 103 128 109 105 104 86 81 89 104 128
316 309 183 161 181 208 232 252 252 253 264 263 263 272 276 275 273 273 274 272 267 264 260 257 254 254 258 265 269 277 285 281 264 261 262 252 234 214 196 191 202 222 222 204 194 190 191 211 243 251 239 233 231 210 183 189 220 236 231 226 224 220 210 216 250 264 243 295 98 105 168 253 102 81 87 114 107 89 80 113 112 113 120 106 89 90 106 124
309 283 249 179 181 205 236 259 280 292 304 292 283 291 292 282 269 260 260 267 274 280 279 276 281 279 268 264 260 263 273 274 263 261 262 266 269 250 226 202 186 207 231 212 183 196 201 198 211 236 237 228 226 208 180 185 205 226 244 245 238 235 231 226 229 230 214 189 142 124 170 235 181 124 133 135 115 105 104 135 128 127 124 113 103 111 135 123
309 291 313 239 191 223 237 246 269 271 285 301 292 289 289 289 298 283 256 249 263 280 286 282 288 289 278 276 270 257 259 262 260 262 262 262 263 254 255 240 196 187 298 360 185 208 230 213 202 220 243 251 267 257 202 218 208 208 234 243 237 235 240 251 259 241 155 136 139 140 169 194 177 156 155 149 137 139 173 171 142 125 123 118 109 114 125 109
317 317 352 355 317 294 263 261 288 287 302 320 311 296 294 293 301 300 275 252 266 279 274 261 266 275 272 272 270 263 263 254 245 252 261 268 271 253 250 250 216 140 76 333 248 229 249 231 206 209 231 252 269 262 237 248 242 218 218 226 234 238 233 246 261 187 114 104 206 164 171 171 157 162 162 161 164 166 173 170 139 113 120 124 115 107 113 113
344 320 358 3 326 300 305 319 335 327 312 308 304 298 297 292 288 284 277 279 291 298 283 255 253 264 264 265 271 277 272 259 248 249 248 255 273 271 252 249 228 115 108 242 243 243 255 241 222 219 222 233 248 248 237 246 256 244 227 217 220 228 221 225 243 209 156 172 191 146 162 171 162 171 175 173 177 177 170 157 133 116 111 112 112 106 118 139
354 325 351 356 329 304 302 304 312 312 298 291 292 291 286 283 282 286 301 300 287 295 298 289 277 273 275 282 291 292 280 275 273 268 271 289 292 288 273 250 228 168 202 237 238 239 242 238 239 243 237 224 229 239 237 239 248 248 245 234 222 225 219 206 213 214 184 166 155 146 181 192 172 181 183 166 168 175 158 141 140 130 111 108 114 99 82 90
357 346 342 337 324 312 303 300 301 299 293 283 276 283 290 291 298 314 323 315 296 288 300 306 300 308 327 313 289 298 324 332 329 313 325 336 315 299 295 278 264 250 243 235 227 227 223 224 239 252 261 243 231 234 234 237 244 242 245 248 239 234 229 213 207 207 188 184 173 153 182 199 150 138 157 140 146 168 150 140 142 130 118 124 131 115 99 95
351 340 331 315 310 312 306 303 293 284 302 308 293 314 327 314 320 329 316 306 308 301 306 308 299 306 318 295 291 337 344 334 327 320 321 321 309 304 302 300 318 317 278 247 232 222 213 224 237 241 254 254 245 240 232 230 238 238 236 246 246 233 227 235 233 195 182 212 194 158 181 203 142 129 139 131 117 121 131 133 129 121 122 131 136 138 147 173
352 337 333 313 293 298 296 289 284 285 325 342 320 318 322 316 319 315 298 291 304 306 315 316 307 309 299 284 316 347 335 322 319 314 309 301 291 290 290 290 295 296 290 280 257 227 210 215 236 240 242 246 249 250 241 230 231 233 225 234 248 240 214 227 238 201 180 201 209 193 194 171 134 137 158 153 129 125 132 131 125 127 133 135 146 152 151 158
Height
796 795 794 793 792 791 789 788 787 785 785 783 782 781 780 778 777 776 774 773 772 770 770 769 768 767 766 765 765 764 763 762 762 762 759 752 750 751 751 752 752 753 755 756 756 755 755 756 757 758 761 762 763 767 770 768 769 776 783 791 794 793 787 780 775 769 765 764 761 757 755 762 766 757 747 741 745 749 750 751 748 746 749 752 755 758 762 766
796 795 794 793 792 791 790 788 787 786 785 783 782 781 779 779 777 776 774 773 772 771 770 769 768 768 766 766 765 764 763 761 761 758 751 748 749 750 750 751 752 753 753 755 754 754 754 753 757 759 759 765 765 766 772 769 770 779 784 788 791 790 782 777 776 768 761 762 760 757 755 758 761 757 748 753 758 752 758 761 755 756 756 755 757 760 763 765
797 796 795 794 792 791 790 788 787 786 784 783 782 781 779 778 777 776 774 773 772 771 770 769 769 767 766 766 764 764 763 761 760 752 742 744 748 748 749 750 751 752 752 754 752 752 751 748 752 757 762 768 767 769 775 770 770 775 780 788 788 784 780 775 776 773 764 757 758 759 755 757 757 751 751 757 760 757 764 766 762 766 764 761 759 760 763 765
797 796 795 793 792 791 790 788 787 785 784 783 781 780 779 778 777 775 774 773 772 771 770 769 768 767 767 765 765 765 762 764 757 742 737 741 745 746 748 749 750 751 751 752 751 749 745 743 749 754 763 773 770 769 775 772 773 775 779 789 786 781 783 777 777 780 770 759 758 758 757 760 755 751 754 759 766 767 762 759 761 764 763 762 761 760 762 764
797 796 794 793 792 791 789 788 786 785 784 782 781 780 778 777 776 775 774 773 771 771 769 769 768 767 767 765 766 763 765 772 754 737 739 741 743 746 747 748 749 750 751 752 750 747 743 739 744 754 765 774 774 773 775 769 769 778 780 783 782 781 783 776 775 777 769 762 760 760 766 764 756 757 759 762 772 769 756 752 754 757 758 759 760 759 761 763
798 796 795 793 792 791 789 788 786 785 784 782 781 779 778 777 775 774 773 772 771 770 769 769 767 767 767 765 766 764 770 770 746 736 743 741 744 746 746 748 749 750 751 751 748 745 743 738 742 756 769 775 776 776 774 766 768 783 784 776 777 778 779 777 776 770 762 765 768 768 769 764 764 769 764 763 767 757 746 746 749 752 753 755 757 758 761 763
797 796 795 793 792 791 789 788 786 784 783 781 780 778 777 775 774 774 772 771 771 770 769 768 767 767 766 765 765 764 766 757 737 738 742 740 745 745 746 749 748 751 751 749 747 744 742 742 743 749 769 779 776 774 772 767 770 784 789 778 774 774 774 776 775 766 762 770 772 769 770 771 775 774 768 765 759 749 744 744 747 750 751 754 757 758 761 762
797 796 795 793 792 790 789 787 785 784 783 781 779 778 776 775 773 772 771 771 769 769 769 768 768 766 765 766 765 764 760 746 736 738 740 741 744 744 747 748 749 751 749 748 745 742 741 744 740 741 765 773 765 768 768 769 773 777 783 779 773 773 770 769 769 766 768 772 773 773 779 783 776 770 770 766 756 749 746 745 747 750 752 755 758 758 760 761
797 796 794 793 792 790 788 787 785 784 782 780 779 777 775 774 772 771 770 769 768 769 767 767 767 765 766 764 763 766 754 739 736 738 739 741 743 745 747 746 749 749 748 747 741 740 742 744 740 739 755 759 756 763 763 770 777 771 773 775 773 773 768 767 767 767 772 774 776 783 786 784 773 768 771 764 755 750 747 749 750 752 755 757 758 759 760 761
797 795 794 793 791 790 788 786 785 783 781 780 778 776 775 773 771 770 769 768 767 767 766 767 767 765 767 763 765 768 748 735 739 739 739 741 742 744 746 746 747 747 745 743 738 737 738 740 738 733 740 749 754 759 759 767 769 762 767 771 771 771 766 766 769 768 772 773 776 783 786 780 770 774 779 765 754 751 751 753 752 754 758 758 758 758 759 761
797 795 794 792 791 790 787 786 784 782 781 779 777 775 774 772 770 769 768 767 766 766 766 766 765 766 765 763 767 762 741 736 740 738 741 741 742 744 744 745 745 745 743 738 736 734 734 735 731 733 742 747 751 757 758 757 758 759 766 772 770 770 768 767 770 769 771 774 773 776 783 781 776 781 780 765 755 753 756 757 754 756 758 757 758 758 759 760
797 795 794 792 791 788 787 785 783 781 780 777 776 774 772 771 769 768 766 766 765 765 765 765 766 765 764 763 761 750 737 738 740 739 742 741 742 743 742 744 742 742 740 736 735 731 732 732 731 743 746 741 749 763 760 750 756 762 765 776 775 771 775 771 771 770 771 776 770 771 786 788 784 782 772 763 758 756 759 760 757 758 758 758 758 759 760 759
796 795 793 792 790 788 786 784 782 781 778 777 775 772 771 769 767 767 765 765 764 764 764 765 765 764 767 764 749 740 739 739 739 739 741 741 742 742 742 742 740 740 739 736 735 731 733 733 735 742 739 741 750 752 752 750 761 768 768 775 777 783 785 772 770 770 771 775 765 773 799 797 784 777 768 763 761 763 767 764 760 759 759 759 759 760 761 760
796 794 793 791 789 787 785 783 781 779 777 776 773 772 770 768 767 766 764 764 763 763 764 764 765 765 767 759 741 738 739 737 739 739 739 740 740 740 741 740 739 739 738 737 736 735 737 735 735 739 736 741 741 737 751 763 767 773 777 775 775 793 793 770 768 772 775 775 763 777 806 800 781 773 768 764 764 769 773 770 767 762 759 760 760 761 762 760
795 793 792 790 788 786 784 782 780 778 776 774 772 770 768 767 766 764 764 763 762 763 763 763 764 763 765 754 737 735 737 736 737 736 737 738 737 738 737 738 738 738 737 737 737 736 736 735 738 745 741 733 733 746 767 777 774 777 791 788 774 784 789 774 767 768 776 774 763 779 800 795 780 772 767 766 769 774 778 777 774 766 759 760 761 761 763 762
794 792 790 789 787 785 783 781 779 777 775 773 771 769 767 766 765 764 764 762 762 763 763 764 761 762 766 753 736 735 736 735 735 735 736 735 736 735 734 737 737 737 737 736 737 736 734 736 739 742 743 739 742 756 772 786 789 784 791 793 780 777 780 779 772 762 768 773 769 778 790 790 781 771 767 769 773 777 783 782 773 767 762 759 761 761 763 764
793 791 789 788 786 784 782 780 778 776 774 772 769 767 766 765 764 764 763 762 764 762 762 761 755 760 760 744 737 738 733 731 733 733 733 733 734 733 732 735 736 736 736 735 737 736 735 739 742 742 743 748 748 752 777 802 802 790 786 786 782 776 772 779 781 765 763 773 775 775 781 784 778 770 769 772 775 776 781 780 771 769 766 760 760 762 764 765
792 790 788 787 785 783 781 779 777 775 773 771 768 767 766 765 764 764 763 763 763 763 765 759 757 768 760 739 738 735 726 727 729 729 731 732 733 732 731 733 735 735 738 741 739 738 741 741 744 751 750 749 749 752 777 795 791 789 787 782 778 772 768 775 780 768 763 772 776 776 780 781 775 771 770 770 774 774 773 773 770 768 767 761 760 764 765 764
790 788 787 785 783 782 780 778 776 774 771 769 768 766 764 764 764 763 763 763 763 765 765 756 756 764 753 733 728 725 720 723 727 728 728 729 732 731 729 732 734 737 747 752 747 741 744 747 752 762 760 752 749 749 759 764 766 773 772 769 770 770 767 764 766 762 759 771 777 776 779 779 776 774 771 769 770 772 771 769 768 769 766 761 761 764 765 764
789 787 785 783 782 780 778 776 774 773 770 768 767 766 765 763 763 763 762 760 757 752 747 743 744 744 736 725 719 720 720 721 725 725 725 728 730 731 731 733 737 743 751 755 751 738 739 758 763 761 757 747 740 738 741 743 749 757 758 761 765 767 765 755 756 755 750 767 777 771 773 775 773 772 767 767 770 771 773 771 769 769 767 763 762 764 766 765
788 786 784 782 780 778 777 775 773 772 770 768 767 767 762 757 760 762 758 754 746 739 738 734 733 734 729 721 715 718 722 725 726 723 725 727 727 736 738 739 748 754 751 749 747 735 740 762 761 748 742 735 731 729 730 736 742 749 754 760 763 761 758 750 752 750 746 763 773 767 773 773 767 767 763 763 769 771 770 770 770 767 766 763 761 763 765 765
787 785 782 781 778 777 775 773 771 769 768 768 767 764 756 750 754 753 752 755 742 732 734 731 729 729 722 718 715 717 725 733 733 725 724 725 729 741 741 741 755 756 746 745 749 748 753 759 749 736 731 728 727 723 726 735 742 748 751 757 763 755 751 750 749 747 747 760 766 762 768 770 764 762 761 761 763 766 765 764 765 765 765 764 762 762 763 765
787 783 781 780 776 775 773 770 769 767 766 766 764 760 754 750 750 748 750 756 746 730 727 728 730 729 724 721 716 719 730 735 737 729 720 726 732 737 739 744 752 751 747 749 754 760 760 749 733 726 727 730 731 726 731 740 745 750 751 756 760 751 752 758 754 750 749 754 758 757 759 764 765 761 760 759 756 756 759 758 759 760 761 763 763 761 760 764
785 782 781 778 775 774 770 768 766 764 763 761 760 756 753 751 750 750 750 754 749 730 719 718 719 722 723 718 713 722 732 727 729 727 717 725 732 733 738 741 747 752 749 745 747 754 753 733 717 719 725 730 735 734 738 748 752 750 746 750 754 747 746 751 752 753 751 750 751 757 765 765 765 767 763 757 754 754 755 756 758 757 758 762 764 760 757 759
784 782 779 776 775 771 769 768 762 761 761 758 757 752 752 752 749 751 753 758 753 728 714 712 712 713 711 712 713 717 726 725 720 717 711 719 728 733 737 734 740 752 748 742 744 748 744 724 714 723 728 728 736 741 740 746 754 749 736 735 743 743 740 741 746 752 758 763 753 756 779 776 760 765 765 757 758 758 756 756 757 757 757 760 762 760 757 757
783 781 777 776 774 769 768 765 761 762 759 754 753 751 752 752 751 752 755 767 758 727 716 716 712 712 706 710 711 712 732 732 713 705 707 716 718 724 737 735 735 744 740 736 740 740 734 721 718 729 733 732 740 745 738 737 752 754 732 721 730 734 734 735 738 745 757 765 751 749 778 780 759 761 763 757 760 760 757 759 756 755 754 754 756 759 759 757
782 779 777 776 773 771 769 764 763 763 758 754 752 752 754 751 752 752 760 780 761 720 716 719 712 711 707 706 706 721 745 731 710 706 703 713 716 715 735 739 736 739 729 732 747 741 728 726 727 729 733 739 745 745 736 731 747 750 726 717 725 727 732 734 735 742 745 748 747 742 757 774 770 766 760 755 761 761 759 760 755 752 751 750 752 755 756 755
780 777 775 774 772 773 770 767 766 761 757 755 753 754 754 751 754 753 771 792 753 706 711 716 708 706 704 702 704 721 728 714 721 720 697 707 718 718 736 738 734 736 725 738 758 739 722 730 733 731 736 741 741 737 728 728 742 737 717 717 721 720 729 733 736 744 741 748 762 748 745 774 781 766 756 753 758 762 760 757 754 750 748 748 751 752 751 752
778 775 773 771 770 770 768 768 766 760 757 756 755 757 752 753 755 756 780 786 737 702 709 711 710 711 707 708 712 718 715 710 722 714 696 709 715 717 733 731 728 733 723 731 748 734 719 720 721 725 735 736 732 726 718 726 736 723 711 718 722 723 729 734 739 743 744 757 769 754 748 774 782 762 753 754 756 760 757 752 750 748 746 745 746 748 751 752
775 774 772 770 768 768 767 766 762 758 757 756 758 756 752 756 759 773 794 772 724 709 710 711 716 715 714 721 723 723 720 716 711 703 705 715 715 716 722 718 721 732 728 726 733 729 717 708 710 718 724 722 722 721 716 718 720 714 715 726 735 735 734 738 740 743 761 774 766 752 747 765 781 765 746 744 746 750 751 749 749 747 745 745 743 743 748 751
772 771 770 768 767 767 767 762 758 757 757 757 758 754 756 761 765 785 785 739 715 719 714 715 718 712 718 728 729 726 725 720 708 710 720 721 723 728 728 727 730 738 741 737 733 728 721 720 720 717 713 713 720 723 718 713 712 718 728 737 747 748 743 750 750 755 782 787 762 745 737 751 778 767 739 732 733 738 745 748 751 750 747 746 744 741 740 742
769 767 766 765 764 764 763 758 756 758 757 757 757 754 762 772 776 781 758 722 724 729 713 712 715 713 719 724 725 724 726 724 712 714 725 728 732 734 735 739 738 750 759 749 740 734 729 727 721 717 713 713 726 733 728 721 719 728 737 746 760 766 770 781 779 777 787 780 756 745 744 756 768 752 732 730 732 736 740 741 745 748 746 745 743 742 739 737
765 763 762 761 760 759 758 756 756 758 757 757 757 756 766 783 778 761 741 728 728 717 703 705 706 711 719 723 725 719 721 725 714 715 722 724 733 733 731 729 726 743 753 743 741 741 738 729 718 722 721 713 723 737 741 736 731 737 743 753 766 773 789 805 797 789 787 772 750 740 751 768 764 742 729 731 733 733 733 735 738 740 741 742 739 738 739 738
761 759 758 757 757 756 755 757 757 757 757 756 759 763 774 786 768 740 733 726 711 700 702 705 704 710 717 721 721 713 720 726 712 715 723 724 735 736 731 728 722 728 735 737 740 737 745 743 723 723 722 715 721 727 729 727 727 733 732 741 756 759 778 797 791 786 780 767 754 750 761 773 765 745 730 728 729 728 731 734 736 738 738 738 737 735 736 738
758 757 756 755 755 755 754 756 757 757 758 756 761 770 778 777 755 735 729 718 704 700 700 700 705 717 719 717 713 704 713 723 712 714 724 726 733 732 728 727 722 723 731 741 738 727 738 734 707 704 707 707 720 717 711 719 728 726 720 736 750 741 749 767 765 757 756 760 762 761 763 755 743 732 720 721 727 727 731 732 733 739 737 735 737 734 733 736
757 755 755 755 754 753 754 756 756 756 756 758 767 773 767 755 740 729 721 711 712 711 708 709 714 724 725 717 714 707 704 712 713 717 722 722 725 723 720 717 713 717 725 733 731 723 732 723 692 696 704 701 711 713 707 719 729 725 727 741 735 716 726 753 755 741 745 765 762 752 754 744 735 735 725 723 732 732 734 733 732 736 735 735 735 733 732 731
758 755 753 751 751 753 754 754 755 756 755 760 771 767 751 738 726 718 710 707 713 713 717 727 721 721 726 720 716 712 707 710 713 718 722 722 721 716 713 709 703 707 712 718 722 714 724 727 700 700 715 702 696 706 706 706 713 726 735 730 717 715 722 738 754 755 761 777 764 748 754 751 750 756 740 732 739 739 737 735 734 735 735 736 733 731 732 727
759 756 751 748 750 752 752 754 754 754 756 763 770 762 747 736 723 712 707 709 716 716 723 733 723 715 719 719 714 707 708 716 716 717 722 722 717 708 707 707 699 697 698 706 719 712 716 734 717 702 713 704 692 710 721 710 703 713 717 706 713 739 745 741 756 769 774 782 773 757 755 753 756 757 744 739 743 740 739 738 737 737 736 737 733 732 733 730
759 758 752 746 748 751 751 754 752 752 759 766 768 758 745 735 723 712 708 711 718 724 729 730 722 717 714 711 712 706 706 714 713 714 720 720 714 700 695 702 698 694 693 698 714 713 711 733 732 706 700 702 704 719 733 728 712 707 708 704 706 724 737 738 745 755 764 773 771 765 765 765 760 749 739 739 739 737 741 741 739 740 740 740 737 734 735 734
756 756 752 745 748 751 750 751 752 755 762 762 758 750 737 729 720 707 702 709 718 724 729 727 722 722 717 708 708 705 703 707 706 709 713 711 710 701 690 694 696 694 692 694 705 709 709 726 736 716 700 709 721 722 724 727 723 721 726 726 721 719 723 728 732 737 748 762 766 772 782 774 752 738 735 736 736 735 739 739 738 740 742 741 737 735 736 736
754 756 752 745 748 750 749 754 756 756 758 755 749 743 734 727 722 711 703 710 720 720 720 723 722 723 721 716 712 706 704 706 704 706 707 703 707 708 693 687 692 692 695 702 707 710 713 722 730 724 715 721 723 709 704 708 711 718 726 728 728 726 728 742 749 736 732 745 754 768 787 771 738 729 732 733 735 734 733 735 737 740 741 739 737 736 738 737
757 756 749 744 748 748 749 757 754 750 752 749 741 735 729 725 725 721 714 715 721 718 716 720 722 721 722 720 716 710 709 710 706 705 704 699 701 703 690 682 685 686 693 706 706 701 705 716 725 725 716 712 705 695 695 698 696 702 710 713 717 720 726 746 757 740 731 740 739 753 780 766 730 721 726 729 733 732 731 734 737 741 740 738 738 737 738 738
756 752 743 743 746 745 752 760 753 747 745 738 731 726 720 720 723 723 721 721 722 720 720 721 721 720 720 718 717 716 714 714 709 702 699 698 693 688 682 679 683 684 690 704 704 697 703 719 730 729 714 702 694 688 689 694 697 706 707 703 709 715 717 726 729 723 731 745 747 766 791 770 730 719 724 728 731 732 732 732 736 741 740 739 741 740 740 741
758 751 741 741 743 743 753 760 752 746 740 732 730 727 720 717 722 725 726 725 722 721 723 721 718 717 717 714 715 715 715 718 714 703 699 700 691 679 675 678 683 687 691 697 697 698 710 723 733 740 738 731 721 710 707 707 709 714 710 702 702 704 707 716 716 716 732 743 749 779 801 773 736 727 731 730 731 736 736 732 733 739 740 741 743 743 743 743
763 754 741 737 738 742 749 749 745 745 743 739 737 735 731 725 719 720 724 724 720 718 722 720 714 714 714 713 716 715 713 717 717 708 702 701 692 679 674 676 682 686 687 686 683 692 709 720 729 744 754 754 747 733 725 720 715 714 710 703 702 701 705 714 719 728 743 743 743 770 788 767 741 735 736 734 736 740 739 735 734 736 740 743 744 746 746 745
765 759 748 740 737 739 741 738 739 743 742 743 743 738 737 735 724 716 719 723 722 719 721 721 716 718 719 718 722 722 716 713 715 712 708 705 698 686 678 677 680 684 687 686 683 691 708 714 718 732 739 737 734 723 711 709 714 719 716 709 707 704 704 710 719 733 741 741 748 759 761 755 747 741 740 738 738 742 741 738 736 738 741 744 745 747 747 747
765 763 760 759 753 746 741 735 737 742 739 742 748 743 739 740 734 725 721 723 723 721 723 722 719 724 727 725 727 727 721 715 715 715 714 708 700 690 682 678 680 684 688 690 688 695 713 717 713 720 725 720 717 712 705 706 711 715 714 713 710 706 706 714 723 729 731 744 761 755 742 748 750 741 740 740 737 739 739 737 738 740 742 745 745 747 748 749
771 768 762 767 768 760 753 746 743 746 744 743 746 745 743 743 740 735 729 724 723 724 727 727 724 726 726 723 726 729 727 724 722 718 715 712 706 700 693 685 683 686 691 695 692 695 714 721 711 712 718 714 711 709 706 707 709 706 706 708 708 707 710 716 719 718 721 740 756 747 738 746 745 735 734 733 731 733 734 734 736 739 741 745 747 749 751 752
779 775 767 768 771 765 759 752 748 750 750 747 748 747 747 746 742 736 730 730 732 730 731 735 733 727 724 722 726 732 733 735 736 727 718 719 717 712 709 700 689 686 692 700 698 696 711 721 713 710 715 711 708 708 704 706 709 707 704 702 701 702 703 707 710 706 709 725 735 733 736 739 732 726 724 720 720 723 726 731 735 738 743 748 750 753 756 757
788 787 782 778 775 767 758 752 751 753 750 747 750 749 745 745 744 740 736 739 744 738 733 739 737 730 730 730 731 736 735 734 739 734 726 729 728 721 719 712 700 696 698 703 701 698 710 722 714 711 720 716 707 705 704 706 710 711 708 702 698 698 698 699 701 700 707 720 722 726 737 735 722 717 715 714 716 718 723 732 736 739 744 747 750 755 758 758
796 794 790 788 782 771 764 757 752 753 753 751 753 751 749 749 748 749 745 739 741 742 738 740 741 735 734 734 734 740 737 731 733 731 726 730 729 724 722 715 710 712 710 706 705 702 709 720 714 715 731 728 711 706 707 704 707 712 713 707 701 699 700 700 698 699 709 721 724 730 741 735 719 714 715 717 719 721 727 734 737 740 743 745 749 754 756 757
799 796 790 791 785 773 768 762 752 752 756 756 754 751 752 751 747 750 752 741 736 739 738 739 742 741 742 742 742 742 736 730 730 727 723 723 720 718 718 713 710 716 715 711 710 704 706 718 720 721 734 731 714 709 706 706 719 725 714 704 701 698 699 701 699 696 701 711 722 730 730 720 712 712 718 722 723 726 730 733 737 741 743 744 746 748 751 754